Regional Weather Roundup
Issued by NWS

Home | Current Version | Previous Version | Graphics & Text | Print | Product List | Glossary On
Versions: 1 2 3 4 5 6 7 8 9 10 11 12 13 14 15 16 17 18 19 20 21 22 23 24 25 26 27 28 29 30 31 32 33 34 35 36 37 38 39 40 41 42 43 44 45 46 47 48 49 50
000
ASUS43 KDMX 270307
RWRIA

WEATHER ROUNDUP FOR IOWA
NATIONAL WEATHER SERVICE DES MOINES IA
900 PM CST MON JAN 26 2015

NOTE: "FAIR" INDICATES FEW OR NO CLOUDS BELOW 12,000 FEET WITH NO
SIGNIFICANT WEATHER AND/OR OBSTRUCTIONS TO VISIBILITY.

* - THESE STATIONS ARE NOT NWS STATIONS...THUS NOT UNDER NWS
QUALITY CONTROL.  THEY ALSO DO NOT REPORT WEATHER SUCH
AS PRECIPITATION OR FOG.

IAZ001>003-012>014-020>022-031>034-043>046-270400-
   NORTHWEST IOWA

CITY           SKY/WX    TMP DP  RH WIND       PRES   REMARKS
CARROLL *      CLEAR     37  34  87 NW14      29.98R WCI  29
CHEROKEE *     CLEAR     36  34  93 NW3       30.00R
DENISON *      CLEAR     39  36  87 NW9       29.98R WCI  33
LE MARS *      CLEAR     36  34  93 CALM      30.02R
ORANGE CITY *  CLEAR     36  32  87 NW7       29.99S WCI  30
SHELDON *      CLEAR     34  34 100 NW7       29.98R WCI  28
SIOUX CITY     CLEAR     37  32  82 NW6       30.02R WCI  32
SPENCER        PTCLDY    34  30  85 NW8       29.97S WCI  27
STORM LAKE *   CLEAR     36  34  93 NW9       29.99R WCI  29
$$

IAZ055>058-069>071-079>083-090>094-270400-
   SOUTHWEST IOWA

CITY           SKY/WX    TMP DP  RH WIND       PRES   REMARKS
ATLANTIC *     CLEAR     37  34  87 NW8       29.98R WCI  31
AUDUBON *      CLEAR     37  32  81 NW6       29.99R WCI  33
CLARINDA *     CLEAR     41  32  70 NE3       30.00S
COUNCIL BLFS * CLEAR     43  36  75 NW7       29.99R
CRESTON *      CLEAR     39  36  87 NW13      29.97R WCI  32
HARLAN  *      CLEAR     37  37 100 NW10      30.02R WCI  30
LAMONI         CLEAR     42  34  73 NW13      29.95R
RED OAK *      CLEAR     45  34  65 N8G14     30.00R
SHENANDOAH *   CLEAR     39  30  70 NW9       30.01R WCI  33
$$

IAZ047>049-059>061-072>074-084-270400-
   CENTRAL IOWA

CITY           SKY/WX    TMP DP  RH WIND       PRES   REMARKS
AMES           CLOUDY    41  34  76 NW17G23   29.95R
ANKENY *       CLOUDY    43  36  75 NW13      29.95R
CHARITON *     MOCLDY    41  36  81 NW8       29.94R
DES MOINES     MOCLDY    42  35  76 NW12      29.96R
GRINNELL*      CLEAR     37  34  87 NW13      29.93R WCI  29
KNOXVILLE *    MOCLDY    43  34  70 NW12G18   29.92S
MARSHALLTOWN   CLOUDY    39  33  79 NW15      29.92R WCI  31
PELLA *        CLEAR     39  36  87 NW12      29.94R WCI  32
PERRY *          N/A     37  36  93 NW10      29.97R WCI  30
$$

IAZ004>006-015-016-023>025-035-036-270400-
   NORTH CENTRAL IOWA

CITY           SKY/WX    TMP DP  RH WIND       PRES   REMARKS
ALGONA *       CLOUDY    36  34  93 NW7       29.96R WCI  30
CLARION *      CLOUDY    37  37 100 NW12      29.95R WCI  30
ESTHERVILLE    CLEAR     34  31  88 NW10      29.95S WCI  26
FORT DODGE *   MOCLDY    37  32  81 NW5       29.97R WCI  34
MASON CITY     CLOUDY    37  32  82 NW13      29.93R WCI  29
FOREST CITY *  CLOUDY    37  32  81 NW13G21   29.93R WCI  29
IOWA FALLS *   CLOUDY    39  32  75 NW15      29.94R WCI  31
$$

IAZ007>011-017>019-026>030-037>042-050>054-066-270400-
   NORTHEAST IOWA

CITY           SKY/WX    TMP DP  RH WIND       PRES   REMARKS
CEDAR RAPIDS   CLOUDY    37  35  92 NW13      29.87R WCI  29
CHARLES CITY * CLOUDY    36  36 100 W13       29.90R WCI  27
CLINTON *      CLOUDY    28  25  86 CALM      29.91R
DECORAH *      CLOUDY    37  34  87 CALM      29.85R
DUBUQUE        CLOUDY    28  25  88 CALM      29.86R FOG
MONTICELLO *   CLOUDY    34  34 100 CALM      29.86R
OELWEIN *      MOCLDY    36  34  93 NW14      29.88R WCI  27
WATERLOO       PTCLDY    37  33  85 NW9       29.90R WCI  30
$$

IAZ064-065-067-068-078-270400-
   EAST CENTRAL IOWA

CITY           SKY/WX    TMP DP  RH WIND       PRES   REMARKS
DAVENPORT      CLOUDY    32  29  88 E3        29.88R
IOWA CITY      CLOUDY    39  35  86 NW8       29.90R WCI  33
MT. PLEASANT * CLOUDY    41  36  81 NW9       29.89S
MUSCATINE *    CLOUDY    34  32  93 NE3       29.89S
QUAD CITIES    CLOUDY    32  30  92 CALM      29.87R
$$

IAZ062-063-075>077-085>089-095>099-270400-
   SOUTHEAST IOWA

CITY           SKY/WX    TMP DP  RH WIND       PRES   REMARKS
BURLINGTON     CLOUDY    41  36  82 NW8       29.88S
FAIRFIELD *    MOCLDY    39  36  87 NW10      29.90S WCI  32
FORT MADISON * CLOUDY    43  37  81 NW9       29.90R
KEOKUK *       CLOUDY    43  37  81 NW7       29.89R
OSKALOOSA *      N/A     36  34  93 NW8       29.92R WCI  29
CENTERVILLE *  MOCLDY    43  37  81 NW9       29.94S
OTTUMWA        CLEAR     40  36  86 NW13      29.91S WCI  32
WASHINGTON *   CLOUDY    41  41 100 NW13      29.89R
$$

ABBREVIATIONS USED IN REMARKS
   TC - TEMPERATURES IN CELSIUS
  WCI - WIND CHILL INDEX
   HX - HEAT INDEX
  VSB - VISIBILITY
$$



USA.gov is the U.S. government's official web portal to all federal, state and local government web resources and services.